| time (UTC) | temp F | wind direction | speed knots | gust knots | rain 1hr in | rain 24hr in | rain mn in | humidity % | barometer mb |
| 20260507040031 | 60 | 360 | 0.0 | 3.5 | 0.00 | 0.10 | 0.00 | 95 | 1004.8 |
| 20260507034536 | 60 | 72 | 0.9 | 4.3 | 0.00 | 0.10 | 0.10 | 95 | 1005.1 |
| 20260507033039 | 60 | 360 | 0.9 | 5.2 | 0.00 | 0.10 | 0.10 | 95 | 1005.0 |
| 20260507031528 | 60 | 360 | 0.0 | 3.5 | 0.00 | 0.10 | 0.10 | 95 | 1004.7 |
| 20260507030029 | 59 | 360 | 0.0 | 4.3 | 0.00 | 0.10 | 0.10 | 96 | 1004.6 |
| 20260507024527 | 59 | 360 | 0.0 | 2.6 | 0.00 | 0.10 | 0.10 | 96 | 1004.5 |
| 20260507023033 | 59 | 360 | 0.0 | 1.7 | 0.00 | 0.10 | 0.10 | 96 | 1004.6 |
| 20260507021525 | 59 | 360 | 0.0 | 1.7 | 0.00 | 0.10 | 0.10 | 96 | 1004.6 |
| 20260507020026 | 59 | 360 | 0.0 | 0.0 | 0.00 | 0.10 | 0.10 | 96 | 1004.6 |
| 20260507014525 | 58 | 360 | 0.0 | 2.6 | 0.00 | 0.10 | 0.10 | 97 | 1004.6 |
| 20260507013024 | 58 | 360 | 0.0 | 1.7 | 0.00 | 0.10 | 0.10 | 97 | 1004.7 |
| 20260507011528 | 58 | 360 | 0.0 | 1.7 | 0.00 | 0.10 | 0.10 | 96 | 1005.0 |
| 20260507010026 | 58 | 360 | 0.0 | 0.9 | 0.00 | 0.10 | 0.10 | 96 | 1005.1 |
| 20260507004532 | 58 | 360 | 0.0 | 3.5 | 0.01 | 0.10 | 0.10 | 96 | 1005.1 |
| 20260507003022 | 58 | 360 | 0.0 | 2.6 | 0.02 | 0.10 | 0.10 | 96 | 1004.9 |
| 20260507001521 | 58 | 360 | 0.0 | 7.0 | 0.03 | 0.10 | 0.10 | 96 | 1004.8 |
| 20260507000020 | 58 | 360 | 0.0 | 3.5 | 0.04 | 0.10 | 0.10 | 95 | 1004.8 |
| 20260506234519 | 58 | 360 | 0.0 | 1.7 | 0.03 | 0.09 | 0.09 | 95 | 1004.7 |
| 20260506233018 | 59 | 360 | 0.0 | 2.6 | 0.02 | 0.08 | 0.08 | 94 | 1004.5 |
| 20260506231516 | 59 | 360 | 0.0 | 5.2 | 0.01 | 0.07 | 0.07 | 94 | 1004.6 |
| 20260506230039 | 59 | 360 | 0.0 | 2.6 | 0.00 | 0.06 | 0.06 | 94 | 1004.8 |
| 20260506224514 | 60 | 360 | 0.0 | 3.5 | 0.00 | 0.06 | 0.06 | 94 | 1004.7 |
| 20260506223014 | 60 | 360 | 0.9 | 2.6 | 0.01 | 0.06 | 0.06 | 94 | 1004.5 |
| 20260506221511 | 60 | 360 | 0.0 | 2.6 | 0.01 | 0.06 | 0.06 | 94 | 1004.8 |
| 20260506220025 | 60 | 51 | 0.0 | 2.6 | 0.02 | 0.06 | 0.06 | 94 | 1005.0 |
| 20260506214509 | 60 | 360 | 0.0 | 7.0 | 0.03 | 0.06 | 0.06 | 93 | 1004.8 |
| 20260506213107 | 61 | 360 | 0.9 | 4.3 | 0.03 | 0.05 | 0.05 | 92 | 1005.2 |
| 20260506211508 | 61 | 360 | 0.0 | 5.2 | 0.03 | 0.05 | 0.05 | 92 | 1005.4 |
| 20260506210011 | 61 | 360 | 1.7 | 9.6 | 0.02 | 0.04 | 0.04 | 91 | 1005.4 |
| 20260506204504 | 61 | 360 | 0.9 | 7.0 | 0.02 | 0.03 | 0.03 | 90 | 1005.5 |
| 20260506203003 | 61 | 360 | 0.9 | 9.6 | 0.01 | 0.02 | 0.02 | 89 | 1005.5 |
| 20260506201502 | 62 | 360 | 0.9 | 4.3 | 0.02 | 0.02 | 0.02 | 88 | 1005.5 |
| 20260506200002 | 63 | 360 | 1.7 | 5.2 | 0.02 | 0.02 | 0.02 | 87 | 1005.6 |
| 20260506194501 | 63 | 360 | 0.0 | 1.7 | 0.01 | 0.01 | 0.01 | 86 | 1005.5 |
| 20260506193101 | 64 | 360 | 0.0 | 3.5 | 0.01 | 0.01 | 0.01 | 83 | 1005.8 |
| 20260506191608 | 66 | 360 | 0.0 | 1.7 | 0.00 | 0.00 | 0.00 | 80 | 1005.8 |
| 20260506190059 | 67 | 243 | 0.0 | 11.3 | 0.00 | 0.00 | 0.00 | 75 | 1005.8 |
| 20260506184557 | 68 | 191 | 1.7 | 5.2 | 0.00 | 0.00 | 0.00 | 71 | 1005.7 |
| 20260506183106 | 69 | 208 | 1.7 | 6.1 | 0.00 | 0.00 | 0.00 | 69 | 1005.9 |
| 20260506181601 | 69 | 248 | 0.0 | 7.0 | 0.00 | 0.00 | 0.00 | 68 | 1006.0 |
| 20260506180113 | 70 | 205 | 0.9 | 4.3 | 0.00 | 0.00 | 0.00 | 66 | 1006.1 |
| 20260506174553 | 72 | 234 | 1.7 | 7.0 | 0.00 | 0.00 | 0.00 | 64 | 1006.3 |
| 20260506173119 | 72 | 231 | 4.3 | 17.4 | 0.00 | 0.00 | 0.00 | 62 | 1006.3 |
| 20260506171551 | 72 | 275 | 0.9 | 8.7 | 0.00 | 0.00 | 0.00 | 62 | 1006.4 |
| 20260506170051 | 73 | 213 | 1.7 | 11.3 | 0.00 | 0.00 | 0.00 | 63 | 1006.2 |
| 20260506164547 | 72 | 279 | 1.7 | 8.7 | 0.00 | 0.00 | 0.00 | 64 | 1006.6 |
| 20260506163047 | 72 | 213 | 0.9 | 7.8 | 0.00 | 0.00 | 0.00 | 66 | 1006.9 |
| 20260506161552 | 72 | 223 | 1.7 | 7.0 | 0.00 | 0.00 | 0.00 | 65 | 1007.0 |
| 20260506160042 | 72 | 194 | 2.6 | 7.0 | 0.00 | 0.00 | 0.00 | 65 | 1007.3 |
| 20260506154539 | 72 | 268 | 0.0 | 7.0 | 0.00 | 0.00 | 0.00 | 65 | 1007.5 |
| 20260506153038 | 72 | 189 | 0.0 | 6.1 | 0.00 | 0.00 | 0.00 | 66 | 1007.6 |
| 20260506151536 | 71 | 254 | 0.0 | 7.0 | 0.00 | 0.00 | 0.00 | 68 | 1007.8 |
| 20260506150034 | 72 | 286 | 0.0 | 4.3 | 0.00 | 0.00 | 0.00 | 66 | 1008.0 |
| 20260506144542 | 71 | 211 | 0.9 | 5.2 | 0.00 | 0.00 | 0.00 | 68 | 1007.9 |
| 20260506143032 | 71 | 221 | 0.9 | 3.5 | 0.00 | 0.00 | 0.00 | 68 | 1007.8 |
| 20260506141535 | 70 | 208 | 1.7 | 4.3 | 0.00 | 0.00 | 0.00 | 68 | 1007.7 |
| 20260506140025 | 69 | 222 | 0.9 | 7.8 | 0.00 | 0.00 | 0.00 | 71 | 1007.8 |
| 20260506134521 | 67 | 210 | 1.7 | 6.1 | 0.00 | 0.00 | 0.00 | 75 | 1007.8 |
| 20260506133019 | 66 | 215 | 0.9 | 5.2 | 0.00 | 0.00 | 0.00 | 76 | 1008.4 |
| 20260506131522 | 66 | 300 | 0.9 | 7.0 | 0.00 | 0.00 | 0.00 | 76 | 1008.6 |
| 20260506130018 | 65 | 257 | 1.7 | 8.7 | 0.00 | 0.00 | 0.00 | 78 | 1008.5 |
| 20260506124512 | 64 | 39 | 0.0 | 3.5 | 0.00 | 0.00 | 0.00 | 81 | 1008.6 |
| 20260506123014 | 63 | 360 | 0.0 | 3.5 | 0.00 | 0.00 | 0.00 | 82 | 1008.7 |
| 20260506121511 | 62 | 360 | 1.7 | 3.5 | 0.00 | 0.00 | 0.00 | 83 | 1008.5 |
| 20260506120021 | 61 | 360 | 0.9 | 3.5 | 0.00 | 0.00 | 0.00 | 85 | 1008.8 |
| 20260506114508 | 61 | 360 | 0.0 | 2.6 | 0.00 | 0.00 | 0.00 | 85 | 1009.0 |
| 20260506113008 | 60 | 360 | 0.9 | 3.5 | 0.00 | 0.00 | 0.00 | 86 | 1009.2 |
| 20260506111507 | 60 | 360 | 0.0 | 3.5 | 0.00 | 0.00 | 0.00 | 87 | 1009.1 |
| 20260506110007 | 59 | 360 | 0.0 | 2.6 | 0.00 | 0.00 | 0.00 | 87 | 1009.0 |
| 20260506104505 | 59 | 360 | 0.0 | 3.5 | 0.00 | 0.00 | 0.00 | 86 | 1009.0 |
| 20260506103005 | 60 | 360 | 0.9 | 3.5 | 0.00 | 0.00 | 0.00 | 86 | 1009.1 |
| 20260506101504 | 59 | 360 | 0.0 | 0.9 | 0.00 | 0.00 | 0.00 | 86 | 1009.0 |
| 20260506100004 | 59 | 360 | 0.9 | 3.5 | 0.00 | 0.00 | 0.00 | 86 | 1008.8 |
| 20260506094502 | 60 | 360 | 0.0 | 0.9 | 0.00 | 0.00 | 0.00 | 85 | 1008.6 |
| 20260506093001 | 60 | 360 | 0.0 | 1.7 | 0.00 | 0.00 | 0.00 | 85 | 1008.7 |
| 20260506091604 | 60 | 360 | 0.0 | 2.6 | 0.00 | 0.00 | 0.00 | 84 | 1008.7 |
| 20260506084600 | 60 | 360 | 0.0 | 3.5 | 0.00 | 0.00 | 0.00 | 84 | 1008.9 |
| 20260506083102 | 60 | 252 | 0.0 | 3.5 | 0.00 | 0.00 | 0.00 | 83 | 1009.0 |
| 20260506081556 | 61 | 263 | 0.9 | 2.6 | 0.00 | 0.00 | 0.00 | 82 | 1008.8 |
| 20260506080107 | 61 | 224 | 0.9 | 3.5 | 0.00 | 0.00 | 0.00 | 82 | 1008.8 |
| 20260506073104 | 61 | 223 | 0.9 | 6.1 | 0.00 | 0.00 | 0.00 | 80 | 1008.8 |
| 20260506071550 | 62 | 261 | 0.0 | 3.5 | 0.00 | 0.00 | 0.00 | 80 | 1008.8 |
| 20260506061544 | 63 | 234 | 1.7 | 3.5 | 0.00 | 0.00 | 0.00 | 76 | 1008.6 |
| 20260506044540 | 64 | 242 | 0.0 | 6.1 | 0.00 | 0.00 | 0.00 | 71 | 1009.1 |
| 20260506043033 | 64 | 248 | 0.9 | 5.2 | 0.00 | 0.00 | 0.00 | 70 | 1009.1 |
| 20260506041546 | 64 | 183 | 2.6 | 7.0 | 0.00 | 0.00 | 0.00 | 70 | 1009.1 |